User: anonymous   Login
Location: Unspecified
(0.0000°N, 0.0000°E)
Time: 21:07:13
(UTC+00:00)
Language:

GPS IIR-05 - Orbit

View from above orbital plane
View from above orbital plane
View from above satellite
View from above satellite

Ground track
Ground track

The orbit is defined by the following mean orbital elements,

1 26407U          26145.59801882 +.00000000 +00000-0 +00000-0 0 00001
2 26407  54.8547 216.0596 0121329 302.3746 231.3385  2.00557527    04
Epoch (UTC): 25 May 2026 14:21:08
Eccentricity: 0.0121329
inclination: 54.8547°
perigee height: 19860 km
apogee height: 20505 km
right ascension of ascending node: 216.0596°
argument of perigee: 302.3746°
revolutions per day: 2.00557527
mean anomaly at epoch: 231.3385°

The dashed part of the orbit path shows where the satellite is in the earth's shadow,  

DLR